Year,Month,Day,Hour,Minute,Value (Times are PST for windgust in km/hr)
2021,10,24,00,00,12.90
2021,10,24,00,01,8.10
2021,10,24,00,02,8.10
2021,10,24,00,03,9.60
2021,10,24,00,04,9.60
2021,10,24,00,05,8.10
2021,10,24,00,06,9.60
2021,10,24,00,07,9.60
2021,10,24,00,08,9.60
2021,10,24,00,09,9.60
2021,10,24,00,10,8.10
2021,10,24,00,11,8.10
2021,10,24,00,12,9.60
2021,10,24,00,13,8.10
2021,10,24,00,14,12.90
2021,10,24,00,15,9.60
2021,10,24,00,16,12.90
2021,10,24,00,17,8.10
2021,10,24,00,18,8.10
2021,10,24,00,19,8.10
2021,10,24,00,20,14.50
2021,10,24,00,21,6.40
2021,10,24,00,22,6.40
2021,10,24,00,23,6.40
2021,10,24,00,24,9.60
2021,10,24,00,25,6.40
2021,10,24,00,26,6.40
2021,10,24,00,27,6.40
2021,10,24,00,28,6.40
2021,10,24,00,29,8.10
2021,10,24,00,30,6.40
2021,10,24,00,31,6.40
2021,10,24,00,32,4.80
2021,10,24,00,33,6.40
2021,10,24,00,34,6.40
2021,10,24,00,35,8.10
2021,10,24,00,36,4.80
2021,10,24,00,37,4.80
2021,10,24,00,38,4.80
2021,10,24,00,39,6.40
2021,10,24,00,40,6.40
2021,10,24,00,41,6.40
2021,10,24,00,42,6.40
2021,10,24,00,43,4.80
2021,10,24,00,44,4.80
2021,10,24,00,45,6.40
2021,10,24,00,46,6.40
2021,10,24,00,47,6.40
2021,10,24,00,48,9.60
2021,10,24,00,49,8.10
2021,10,24,00,50,8.10
2021,10,24,00,51,9.60
2021,10,24,00,52,6.40
2021,10,24,00,53,8.10
2021,10,24,00,54,8.10
2021,10,24,00,55,8.10
2021,10,24,00,56,8.10
2021,10,24,00,57,8.10
2021,10,24,00,58,6.40
2021,10,24,00,59,8.10
2021,10,24,01,00,12.90
2021,10,24,01,01,12.90
2021,10,24,01,02,9.60
2021,10,24,01,03,8.10
2021,10,24,01,04,8.10
2021,10,24,01,05,12.90
2021,10,24,01,06,9.60
2021,10,24,01,07,9.60
2021,10,24,01,08,9.60
2021,10,24,01,09,12.90
2021,10,24,01,10,6.40
2021,10,24,01,11,8.10
2021,10,24,01,12,8.10
2021,10,24,01,13,8.10
2021,10,24,01,14,8.10
2021,10,24,01,15,9.60
2021,10,24,01,16,9.60
2021,10,24,01,17,9.60
2021,10,24,01,18,12.90
2021,10,24,01,19,9.60
2021,10,24,01,20,9.60
2021,10,24,01,21,9.60
2021,10,24,01,22,12.90
2021,10,24,01,23,9.60
2021,10,24,01,24,9.60
2021,10,24,01,25,12.90
2021,10,24,01,26,8.10
2021,10,24,01,27,9.60
2021,10,24,01,28,9.60
2021,10,24,01,29,8.10
2021,10,24,01,30,8.10
2021,10,24,01,31,9.60
2021,10,24,01,32,14.50
2021,10,24,01,33,12.90
2021,10,24,01,34,9.60
2021,10,24,01,35,12.90
2021,10,24,01,36,12.90
2021,10,24,01,37,9.60
2021,10,24,01,38,12.90
2021,10,24,01,39,12.90
2021,10,24,01,40,9.60
2021,10,24,01,41,12.90
2021,10,24,01,42,12.90
2021,10,24,01,43,12.90
2021,10,24,01,44,14.50
2021,10,24,01,45,12.90
2021,10,24,01,46,12.90
2021,10,24,01,47,8.10
2021,10,24,01,48,9.60
2021,10,24,01,49,14.50
2021,10,24,01,50,12.90
2021,10,24,01,51,8.10
2021,10,24,01,52,8.10
2021,10,24,01,53,8.10
2021,10,24,01,54,8.10
2021,10,24,01,55,9.60
2021,10,24,01,56,9.60
2021,10,24,01,57,8.10
2021,10,24,01,58,8.10
2021,10,24,01,59,8.10
2021,10,24,02,00,9.60
2021,10,24,02,01,9.60
2021,10,24,02,02,8.10
2021,10,24,02,03,6.40
2021,10,24,02,04,12.90
2021,10,24,02,05,8.10
2021,10,24,02,06,12.90
2021,10,24,02,07,8.10
2021,10,24,02,08,6.40
2021,10,24,02,09,8.10
2021,10,24,02,10,12.90
2021,10,24,02,11,12.90
2021,10,24,02,12,9.60
2021,10,24,02,13,9.60
2021,10,24,02,14,12.90
2021,10,24,02,15,9.60
2021,10,24,02,16,6.40
2021,10,24,02,17,8.10
2021,10,24,02,18,8.10
2021,10,24,02,19,8.10
2021,10,24,02,20,6.40
2021,10,24,02,21,4.80
2021,10,24,02,22,6.40
2021,10,24,02,23,8.10
2021,10,24,02,24,8.10
2021,10,24,02,25,9.60
2021,10,24,02,26,8.10
2021,10,24,02,27,4.80
2021,10,24,02,28,12.90
2021,10,24,02,29,3.20
2021,10,24,02,30,1.60
2021,10,24,02,31,8.10
2021,10,24,02,32,8.10
2021,10,24,02,33,6.40
2021,10,24,02,34,4.80
2021,10,24,02,35,4.80
2021,10,24,02,36,12.90
2021,10,24,02,37,6.40
2021,10,24,02,38,8.10
2021,10,24,02,39,12.90
2021,10,24,02,40,9.60
2021,10,24,02,41,8.10
2021,10,24,02,42,8.10
2021,10,24,02,43,9.60
2021,10,24,02,44,6.40
2021,10,24,02,45,8.10
2021,10,24,02,46,6.40
2021,10,24,02,47,4.80
2021,10,24,02,48,4.80
2021,10,24,02,49,9.60
2021,10,24,02,50,6.40
2021,10,24,02,51,4.80
2021,10,24,02,52,6.40
2021,10,24,02,53,8.10
2021,10,24,02,54,6.40
2021,10,24,02,55,14.50
2021,10,24,02,56,9.60
2021,10,24,02,57,9.60
2021,10,24,02,58,8.10
2021,10,24,02,59,12.90
2021,10,24,03,00,6.40
2021,10,24,03,01,6.40
2021,10,24,03,02,12.90
2021,10,24,03,03,9.60
2021,10,24,03,04,12.90
2021,10,24,03,05,8.10
2021,10,24,03,06,12.90
2021,10,24,03,07,9.60
2021,10,24,03,08,8.10
2021,10,24,03,09,8.10
2021,10,24,03,10,9.60
2021,10,24,03,11,6.40
2021,10,24,03,12,8.10
2021,10,24,03,13,6.40
2021,10,24,03,14,6.40
2021,10,24,03,15,12.90
2021,10,24,03,16,12.90
2021,10,24,03,17,12.90
2021,10,24,03,18,12.90
2021,10,24,03,19,12.90
2021,10,24,03,20,6.40
2021,10,24,03,21,12.90
2021,10,24,03,22,12.90
2021,10,24,03,23,12.90
2021,10,24,03,24,9.60
2021,10,24,03,25,9.60
2021,10,24,03,26,9.60
2021,10,24,03,27,8.10
2021,10,24,03,28,8.10
2021,10,24,03,29,8.10
2021,10,24,03,30,8.10
2021,10,24,03,31,8.10
2021,10,24,03,32,6.40
2021,10,24,03,33,6.40
2021,10,24,03,34,8.10
2021,10,24,03,35,6.40
2021,10,24,03,36,6.40
2021,10,24,03,37,9.60
2021,10,24,03,38,8.10
2021,10,24,03,39,6.40
2021,10,24,03,40,3.20
2021,10,24,03,41,8.10
2021,10,24,03,42,4.80
2021,10,24,03,43,4.80
2021,10,24,03,44,6.40
2021,10,24,03,45,4.80
2021,10,24,03,46,3.20
2021,10,24,03,47,3.20
2021,10,24,03,48,6.40
2021,10,24,03,49,1.60
2021,10,24,03,50,1.60
2021,10,24,03,51,3.20
2021,10,24,03,52,4.80
2021,10,24,03,53,4.80
2021,10,24,03,54,4.80
2021,10,24,03,55,1.60
2021,10,24,03,57,4.80
2021,10,24,03,58,4.80
2021,10,24,03,59,6.40
2021,10,24,04,00,8.10
2021,10,24,04,01,6.40
2021,10,24,04,02,4.80
2021,10,24,04,03,4.80
2021,10,24,04,04,4.80
2021,10,24,04,05,3.20
2021,10,24,04,06,6.40
2021,10,24,04,07,4.80
2021,10,24,04,08,1.60
2021,10,24,04,09,1.60
2021,10,24,04,12,3.20
2021,10,24,04,14,3.20
2021,10,24,04,15,3.20
2021,10,24,04,16,4.80
2021,10,24,04,17,3.20
2021,10,24,04,21,3.20
2021,10,24,04,22,8.10
2021,10,24,04,23,6.40
2021,10,24,04,24,4.80
2021,10,24,04,25,1.60
2021,10,24,04,26,3.20
2021,10,24,04,27,1.60
2021,10,24,04,29,3.20
2021,10,24,04,30,4.80
2021,10,24,04,31,4.80
2021,10,24,04,32,6.40
2021,10,24,04,33,6.40
2021,10,24,04,34,8.10
2021,10,24,04,35,8.10
2021,10,24,04,36,4.80
2021,10,24,04,37,8.10
2021,10,24,04,38,6.40
2021,10,24,04,39,8.10
2021,10,24,04,40,8.10
2021,10,24,04,41,12.90
2021,10,24,04,42,8.10
2021,10,24,04,43,12.90
2021,10,24,04,44,8.10
2021,10,24,04,45,8.10
2021,10,24,04,46,6.40
2021,10,24,04,47,6.40
2021,10,24,04,48,6.40
2021,10,24,04,49,12.90
2021,10,24,04,50,6.40
2021,10,24,04,51,6.40
2021,10,24,04,52,6.40
2021,10,24,04,53,6.40
2021,10,24,04,54,9.60
2021,10,24,04,55,9.60
2021,10,24,04,56,8.10
2021,10,24,04,57,6.40
2021,10,24,04,58,9.60
2021,10,24,04,59,8.10
2021,10,24,05,00,8.10
2021,10,24,05,01,8.10
2021,10,24,05,02,4.80
2021,10,24,05,03,4.80
2021,10,24,05,04,6.40
2021,10,24,05,05,8.10
2021,10,24,05,06,6.40
2021,10,24,05,08,9.60
2021,10,24,05,09,8.10
2021,10,24,05,10,8.10
2021,10,24,05,11,6.40
2021,10,24,05,12,6.40
2021,10,24,05,13,6.40
2021,10,24,05,14,6.40
2021,10,24,05,15,8.10
2021,10,24,05,16,8.10
2021,10,24,05,17,8.10
2021,10,24,05,18,8.10
2021,10,24,05,19,4.80
2021,10,24,05,20,6.40
2021,10,24,05,21,4.80
2021,10,24,05,22,9.60
2021,10,24,05,23,9.60
2021,10,24,05,24,9.60
2021,10,24,05,25,12.90
2021,10,24,05,26,12.90
2021,10,24,05,27,14.50
2021,10,24,05,28,16.10
2021,10,24,05,29,8.10
2021,10,24,05,30,16.10
2021,10,24,05,31,9.60
2021,10,24,05,32,9.60
2021,10,24,05,33,12.90
2021,10,24,05,34,8.10
2021,10,24,05,35,8.10
2021,10,24,05,36,14.50
2021,10,24,05,37,14.50
2021,10,24,05,38,14.50
2021,10,24,05,39,12.90
2021,10,24,05,40,17.70
2021,10,24,05,41,14.50
2021,10,24,05,42,14.50
2021,10,24,05,43,17.70
2021,10,24,05,44,17.70
2021,10,24,05,45,17.70
2021,10,24,05,46,16.10
2021,10,24,05,47,16.10
2021,10,24,05,48,19.30
2021,10,24,05,49,16.10
2021,10,24,05,50,14.50
2021,10,24,05,51,17.70
2021,10,24,05,52,19.30
2021,10,24,05,53,16.10
2021,10,24,05,54,17.70
2021,10,24,05,55,16.10
2021,10,24,05,56,17.70
2021,10,24,05,57,14.50
2021,10,24,05,58,16.10
2021,10,24,05,59,16.10
2021,10,24,06,00,9.60
2021,10,24,06,01,16.10
2021,10,24,06,02,16.10
2021,10,24,06,03,12.90
2021,10,24,06,04,17.70
2021,10,24,06,05,19.30
2021,10,24,06,06,16.10
2021,10,24,06,07,16.10
2021,10,24,06,08,14.50
2021,10,24,06,09,9.60
2021,10,24,06,10,8.10
2021,10,24,06,11,14.50
2021,10,24,06,12,14.50
2021,10,24,06,13,14.50
2021,10,24,06,14,16.10
2021,10,24,06,15,12.90
2021,10,24,06,16,17.70
2021,10,24,06,17,16.10
2021,10,24,06,18,12.90
2021,10,24,06,19,16.10
2021,10,24,06,20,16.10
2021,10,24,06,21,12.90
2021,10,24,06,22,12.90
2021,10,24,06,23,9.60
2021,10,24,06,24,12.90
2021,10,24,06,25,12.90
2021,10,24,06,26,9.60
2021,10,24,06,27,9.60
2021,10,24,06,28,12.90
2021,10,24,06,29,17.70
2021,10,24,06,30,12.90
2021,10,24,06,31,12.90
2021,10,24,06,32,16.10
2021,10,24,06,33,16.10
2021,10,24,06,34,16.10
2021,10,24,06,35,17.70
2021,10,24,06,36,17.70
2021,10,24,06,37,17.70
2021,10,24,06,38,17.70
2021,10,24,06,39,16.10
2021,10,24,06,40,16.10
2021,10,24,06,41,16.10
2021,10,24,06,42,19.30
2021,10,24,06,43,16.10
2021,10,24,06,44,16.10
2021,10,24,06,45,14.50
2021,10,24,06,46,14.50
2021,10,24,06,47,12.90
2021,10,24,06,48,12.90
2021,10,24,06,49,16.10
2021,10,24,06,50,17.70
2021,10,24,06,51,14.50
2021,10,24,06,52,16.10
2021,10,24,06,53,19.30
2021,10,24,06,54,16.10
2021,10,24,06,55,14.50
2021,10,24,06,56,16.10
2021,10,24,06,57,16.10
2021,10,24,06,58,16.10
2021,10,24,06,59,14.50
2021,10,24,07,00,14.50
2021,10,24,07,01,16.10
2021,10,24,07,02,14.50
2021,10,24,07,03,12.90
2021,10,24,07,04,14.50
2021,10,24,07,05,14.50
2021,10,24,07,06,14.50
2021,10,24,07,07,14.50
2021,10,24,07,08,16.10
2021,10,24,07,09,12.90
2021,10,24,07,10,12.90
2021,10,24,07,11,14.50
2021,10,24,07,12,12.90
2021,10,24,07,13,14.50
2021,10,24,07,14,12.90
2021,10,24,07,15,14.50
2021,10,24,07,16,16.10
2021,10,24,07,17,12.90
2021,10,24,07,18,17.70
2021,10,24,07,19,16.10
2021,10,24,07,20,14.50
2021,10,24,07,21,14.50
2021,10,24,07,22,14.50
2021,10,24,07,23,12.90
2021,10,24,07,24,14.50
2021,10,24,07,25,12.90
2021,10,24,07,26,14.50
2021,10,24,07,27,16.10
2021,10,24,07,28,14.50
2021,10,24,07,29,14.50
2021,10,24,07,30,16.10
2021,10,24,07,31,12.90
2021,10,24,07,32,12.90
2021,10,24,07,33,14.50
2021,10,24,07,34,12.90
2021,10,24,07,35,12.90
2021,10,24,07,36,12.90
2021,10,24,07,37,9.60
2021,10,24,07,38,8.10
2021,10,24,07,39,9.60
2021,10,24,07,40,12.90
2021,10,24,07,41,6.40
2021,10,24,07,42,8.10
2021,10,24,07,43,8.10
2021,10,24,07,44,8.10
2021,10,24,07,45,9.60
2021,10,24,07,46,4.80
2021,10,24,07,47,4.80
2021,10,24,07,48,8.10
2021,10,24,07,49,6.40
2021,10,24,07,50,8.10
2021,10,24,07,51,6.40
2021,10,24,07,52,6.40
2021,10,24,07,53,12.90
2021,10,24,07,54,12.90
2021,10,24,07,55,9.60
2021,10,24,07,56,8.10
2021,10,24,07,57,9.60
2021,10,24,07,58,12.90
2021,10,24,07,59,12.90
2021,10,24,08,00,14.50
2021,10,24,08,01,9.60
2021,10,24,08,02,12.90
2021,10,24,08,03,8.10
2021,10,24,08,04,12.90
2021,10,24,08,05,9.60
2021,10,24,08,06,8.10
2021,10,24,08,07,12.90
2021,10,24,08,08,12.90
2021,10,24,08,09,9.60
2021,10,24,08,10,6.40
2021,10,24,08,11,12.90
2021,10,24,08,12,12.90
2021,10,24,08,13,12.90
2021,10,24,08,14,12.90
2021,10,24,08,15,14.50
2021,10,24,08,16,12.90
2021,10,24,08,17,6.40
2021,10,24,08,18,6.40
2021,10,24,08,19,11.30
2021,10,24,08,20,9.60
2021,10,24,08,21,12.90
2021,10,24,08,22,6.40
2021,10,24,08,23,6.40
2021,10,24,08,24,8.10
2021,10,24,08,25,8.10
2021,10,24,08,26,6.40
2021,10,24,08,27,6.40
2021,10,24,08,28,8.10
2021,10,24,08,29,6.40
2021,10,24,08,30,9.60
2021,10,24,08,31,14.50
2021,10,24,08,32,9.60
2021,10,24,08,33,6.40
2021,10,24,08,34,12.90
2021,10,24,08,35,12.90
2021,10,24,08,36,9.60
2021,10,24,08,37,6.40
2021,10,24,08,38,9.60
2021,10,24,08,39,12.90
2021,10,24,08,40,9.60
2021,10,24,08,41,9.60
2021,10,24,08,42,16.10
2021,10,24,08,43,8.10
2021,10,24,08,44,6.40
2021,10,24,08,45,8.10
2021,10,24,08,46,6.40
2021,10,24,08,47,6.40
2021,10,24,08,48,6.40
2021,10,24,08,49,6.40
2021,10,24,08,50,4.80
2021,10,24,08,51,6.40
2021,10,24,08,52,6.40
2021,10,24,08,53,6.40
2021,10,24,08,54,8.10
2021,10,24,08,55,6.40
2021,10,24,08,56,6.40
2021,10,24,08,57,6.40
2021,10,24,08,58,6.40
2021,10,24,08,59,6.40
2021,10,24,09,00,9.60
2021,10,24,09,01,6.40
2021,10,24,09,02,9.60
2021,10,24,09,03,14.50
2021,10,24,09,04,8.10
2021,10,24,09,05,16.10
2021,10,24,09,06,12.90
2021,10,24,09,07,8.10
2021,10,24,09,08,6.40
2021,10,24,09,09,12.90
2021,10,24,09,10,12.90
2021,10,24,09,11,9.60
2021,10,24,09,12,8.10
2021,10,24,09,13,8.10
2021,10,24,09,14,6.40
2021,10,24,09,15,8.10
2021,10,24,09,16,8.10
2021,10,24,09,17,8.10
2021,10,24,09,18,9.60
2021,10,24,09,19,12.90
2021,10,24,09,20,19.30
2021,10,24,09,21,19.30
2021,10,24,09,22,19.30
2021,10,24,09,23,17.70
2021,10,24,09,24,24.20
2021,10,24,09,25,17.70
2021,10,24,09,26,19.30
2021,10,24,09,27,19.30
2021,10,24,09,28,17.70
2021,10,24,09,29,16.10
2021,10,24,09,30,16.10
2021,10,24,09,31,20.90
2021,10,24,09,32,19.30
2021,10,24,09,33,27.40
2021,10,24,09,34,19.30
2021,10,24,09,35,17.70
2021,10,24,09,36,12.90
2021,10,24,09,37,20.90
2021,10,24,09,38,17.70
2021,10,24,09,39,24.20
2021,10,24,09,40,20.90
2021,10,24,09,41,19.30
2021,10,24,09,42,19.30
2021,10,24,09,43,20.90
2021,10,24,09,44,12.90
2021,10,24,09,45,14.50
2021,10,24,09,46,20.90
2021,10,24,09,47,19.30
2021,10,24,09,48,17.70
2021,10,24,09,49,9.60
2021,10,24,09,50,9.60
2021,10,24,09,51,14.50
2021,10,24,09,52,9.60
2021,10,24,09,53,16.10
2021,10,24,09,54,14.50
2021,10,24,09,55,14.50
2021,10,24,09,56,16.10
2021,10,24,09,57,12.90
2021,10,24,09,58,17.70
2021,10,24,09,59,20.90
2021,10,24,10,00,19.30
2021,10,24,10,01,16.10
2021,10,24,10,02,16.10
2021,10,24,10,03,17.70
2021,10,24,10,04,16.10
2021,10,24,10,05,16.10
2021,10,24,10,06,16.10
2021,10,24,10,07,19.30
2021,10,24,10,08,17.70
2021,10,24,10,09,17.70
2021,10,24,10,10,16.10
2021,10,24,10,11,9.60
2021,10,24,10,12,14.50
2021,10,24,10,13,14.50
2021,10,24,10,14,12.90
2021,10,24,10,15,16.10
2021,10,24,10,16,25.70
2021,10,24,10,17,19.30
2021,10,24,10,18,19.30
2021,10,24,10,19,16.10
2021,10,24,10,20,17.70
2021,10,24,10,21,19.30
2021,10,24,10,22,20.90
2021,10,24,10,23,22.50
2021,10,24,10,24,17.70
2021,10,24,10,25,20.90
2021,10,24,10,26,17.70
2021,10,24,10,27,14.50
2021,10,24,10,28,19.30
2021,10,24,10,29,14.50
2021,10,24,10,30,17.70
2021,10,24,10,31,17.70
2021,10,24,10,32,19.30
2021,10,24,10,33,20.90
2021,10,24,10,34,17.70
2021,10,24,10,35,14.50
2021,10,24,10,36,17.70
2021,10,24,10,37,14.50
2021,10,24,10,38,12.90
2021,10,24,10,39,16.10
2021,10,24,10,40,16.10
2021,10,24,10,41,9.60
2021,10,24,10,42,9.60
2021,10,24,10,43,9.60
2021,10,24,10,44,8.10
2021,10,24,10,45,8.10
2021,10,24,10,46,6.40
2021,10,24,10,47,17.70
2021,10,24,10,48,19.30
2021,10,24,10,49,16.10
2021,10,24,10,50,19.30
2021,10,24,10,51,19.30
2021,10,24,10,52,17.70
2021,10,24,10,53,16.10
2021,10,24,10,54,20.90
2021,10,24,10,55,19.30
2021,10,24,10,56,16.10
2021,10,24,10,57,19.30
2021,10,24,10,58,16.10
2021,10,24,10,59,19.30
2021,10,24,11,00,24.20
2021,10,24,11,01,19.30
2021,10,24,11,02,19.30
2021,10,24,11,03,16.10
2021,10,24,11,04,20.90
2021,10,24,11,05,17.70
2021,10,24,11,06,17.70
2021,10,24,11,07,20.90
2021,10,24,11,08,17.70
2021,10,24,11,09,14.50
2021,10,24,11,10,17.70
2021,10,24,11,11,17.70
2021,10,24,11,12,16.10
2021,10,24,11,13,16.10
2021,10,24,11,14,12.90
2021,10,24,11,15,16.10
2021,10,24,11,16,16.10
2021,10,24,11,17,19.30
2021,10,24,11,18,17.70
2021,10,24,11,19,14.50
2021,10,24,11,20,22.50
2021,10,24,11,21,19.30
2021,10,24,11,22,20.90
2021,10,24,11,23,20.90
2021,10,24,11,24,19.30
2021,10,24,11,25,20.90
2021,10,24,11,26,19.30
2021,10,24,11,27,16.10
2021,10,24,11,28,20.90
2021,10,24,11,29,20.90
2021,10,24,11,30,19.30
2021,10,24,11,31,17.70
2021,10,24,11,32,17.70
2021,10,24,11,33,17.70
2021,10,24,11,34,17.70
2021,10,24,11,35,16.10
2021,10,24,11,36,14.50
2021,10,24,11,37,16.10
2021,10,24,11,38,14.50
2021,10,24,11,39,12.90
2021,10,24,11,40,12.90
2021,10,24,11,41,9.60
2021,10,24,11,42,19.30
2021,10,24,11,43,12.90
2021,10,24,11,44,14.50
2021,10,24,11,45,16.10
2021,10,24,11,46,16.10
2021,10,24,11,47,16.10
2021,10,24,11,48,19.30
2021,10,24,11,49,17.70
2021,10,24,11,50,14.50
2021,10,24,11,51,16.10
2021,10,24,11,52,20.90
2021,10,24,11,53,16.10
2021,10,24,11,54,17.70
2021,10,24,11,55,20.90
2021,10,24,11,56,14.50
2021,10,24,11,57,14.50
2021,10,24,11,58,16.10
2021,10,24,11,59,19.30
2021,10,24,12,00,14.50
2021,10,24,12,01,14.50
2021,10,24,12,02,16.10
2021,10,24,12,03,16.10
2021,10,24,12,04,17.70
2021,10,24,12,05,14.50
2021,10,24,12,06,11.30
2021,10,24,12,07,17.70
2021,10,24,12,08,12.90
2021,10,24,12,09,16.10
2021,10,24,12,10,17.70
2021,10,24,12,11,20.90
2021,10,24,12,12,20.90
2021,10,24,12,13,16.10
2021,10,24,12,14,16.10
2021,10,24,12,15,16.10
2021,10,24,12,16,16.10
2021,10,24,12,17,12.90
2021,10,24,12,18,16.10
2021,10,24,12,19,16.10
2021,10,24,12,20,16.10
2021,10,24,12,21,19.30
2021,10,24,12,22,17.70
2021,10,24,12,23,12.90
2021,10,24,12,24,17.70
2021,10,24,12,25,14.50
2021,10,24,12,26,19.30
2021,10,24,12,27,14.50
2021,10,24,12,28,14.50
2021,10,24,12,29,16.10
2021,10,24,12,30,20.90
2021,10,24,12,31,14.50
2021,10,24,12,32,16.10
2021,10,24,12,33,17.70
2021,10,24,12,34,16.10
2021,10,24,12,35,12.90
2021,10,24,12,36,17.70
2021,10,24,12,37,14.50
2021,10,24,12,38,16.10
2021,10,24,12,39,16.10
2021,10,24,12,40,16.10
2021,10,24,12,41,17.70
2021,10,24,12,42,17.70
2021,10,24,12,43,14.50
2021,10,24,12,44,19.30
2021,10,24,12,45,19.30
2021,10,24,12,46,17.70
2021,10,24,12,47,17.70
2021,10,24,12,48,17.70
2021,10,24,12,49,16.10
2021,10,24,12,50,22.50
2021,10,24,12,51,16.10
2021,10,24,12,52,22.50
2021,10,24,12,53,16.10
2021,10,24,12,54,19.30
2021,10,24,12,55,17.70
2021,10,24,12,56,17.70
2021,10,24,12,57,17.70
2021,10,24,12,58,16.10
2021,10,24,12,59,19.30
2021,10,24,13,00,19.30
2021,10,24,13,01,19.30
2021,10,24,13,02,17.70
2021,10,24,13,03,17.70
2021,10,24,13,04,17.70
2021,10,24,13,05,14.50
2021,10,24,13,06,16.10
2021,10,24,13,07,14.50
2021,10,24,13,08,12.90
2021,10,24,13,09,17.70
2021,10,24,13,10,12.90
2021,10,24,13,11,12.90
2021,10,24,13,12,14.50
2021,10,24,13,13,14.50
2021,10,24,13,14,9.60
2021,10,24,13,15,9.60
2021,10,24,13,16,14.50
2021,10,24,13,17,12.90
2021,10,24,13,18,12.90
2021,10,24,13,19,17.70
2021,10,24,13,20,14.50
2021,10,24,13,21,9.60
2021,10,24,13,22,12.90
2021,10,24,13,23,14.50
2021,10,24,13,24,12.90
2021,10,24,13,25,12.90
2021,10,24,13,26,11.30
2021,10,24,13,27,16.10
2021,10,24,13,28,16.10
2021,10,24,13,29,19.30
2021,10,24,13,30,16.10
2021,10,24,13,31,14.50
2021,10,24,13,32,22.50
2021,10,24,13,33,12.90
2021,10,24,13,34,16.10
2021,10,24,13,35,8.10
2021,10,24,13,36,4.80
2021,10,24,13,39,4.80
2021,10,24,13,40,4.80
2021,10,24,13,41,12.90
2021,10,24,13,42,14.50
2021,10,24,13,43,19.30
2021,10,24,13,44,12.90
2021,10,24,13,45,14.50
2021,10,24,13,46,20.90
2021,10,24,13,47,16.10
2021,10,24,13,48,9.60
2021,10,24,13,49,16.10
2021,10,24,13,50,14.50
2021,10,24,13,51,16.10
2021,10,24,13,52,9.60
2021,10,24,13,53,6.40
2021,10,24,13,54,12.90
2021,10,24,13,55,9.60
2021,10,24,13,56,12.90
2021,10,24,13,57,12.90
2021,10,24,13,58,12.90
2021,10,24,13,59,19.30
2021,10,24,14,00,4.80
2021,10,24,14,09,6.40
2021,10,24,14,10,11.30
2021,10,24,14,11,4.80
2021,10,24,14,12,6.40
2021,10,24,14,13,9.60
2021,10,24,14,14,11.30
2021,10,24,14,15,9.60
2021,10,24,14,16,12.90
2021,10,24,14,17,17.70
2021,10,24,14,18,12.90
2021,10,24,14,19,17.70
2021,10,24,14,20,16.10
2021,10,24,14,21,11.30
2021,10,24,14,22,14.50
2021,10,24,14,23,11.30
2021,10,24,14,24,11.30
2021,10,24,14,25,6.40
2021,10,24,14,26,8.10
2021,10,24,14,27,16.10
2021,10,24,14,28,12.90
2021,10,24,14,29,9.60
2021,10,24,14,30,3.20
2021,10,24,14,31,8.10
2021,10,24,14,32,6.40
2021,10,24,14,33,9.60
2021,10,24,14,34,6.40
2021,10,24,14,35,3.20
2021,10,24,14,36,6.40
2021,10,24,14,37,9.60
2021,10,24,14,38,6.40
2021,10,24,14,39,8.10
2021,10,24,14,40,4.80
2021,10,24,14,41,4.80
2021,10,24,14,42,6.40
2021,10,24,14,43,4.80
2021,10,24,14,44,9.60
2021,10,24,14,45,4.80
2021,10,24,14,46,1.60
2021,10,24,14,50,4.80
2021,10,24,14,51,1.60
2021,10,24,14,53,3.20
2021,10,24,14,54,3.20
2021,10,24,14,55,3.20
2021,10,24,15,58,6.40
2021,10,24,15,59,6.40
2021,10,24,16,00,4.80
2021,10,24,16,21,9.60
2021,10,24,16,22,9.60
2021,10,24,16,23,4.80
2021,10,24,16,24,4.80
2021,10,24,16,25,6.40
2021,10,24,16,26,4.80
2021,10,24,16,27,3.20
2021,10,24,16,42,6.40
2021,10,24,16,43,3.20
2021,10,24,16,44,9.60
2021,10,24,16,45,9.60
2021,10,24,16,46,9.60
2021,10,24,16,47,9.60
2021,10,24,16,48,12.90
2021,10,24,16,49,9.60
2021,10,24,16,50,11.30
2021,10,24,16,51,12.90
2021,10,24,16,52,6.40
2021,10,24,16,53,6.40
2021,10,24,16,54,11.30
2021,10,24,16,55,16.10
2021,10,24,16,56,9.60
2021,10,24,16,57,11.30
2021,10,24,16,58,12.90
2021,10,24,16,59,12.90
2021,10,24,17,00,12.90
2021,10,24,17,01,16.10
2021,10,24,17,02,8.10
2021,10,24,17,03,12.90
2021,10,24,17,04,6.40
2021,10,24,17,05,6.40
2021,10,24,17,06,6.40
2021,10,24,17,07,6.40
2021,10,24,17,08,6.40
2021,10,24,17,09,4.80
2021,10,24,17,10,4.80
2021,10,24,17,11,4.80
2021,10,24,17,12,6.40
2021,10,24,17,13,6.40
2021,10,24,17,16,6.40
2021,10,24,17,24,6.40
2021,10,24,17,25,8.10
2021,10,24,17,26,1.60
2021,10,24,17,27,6.40
2021,10,24,17,28,1.60
2021,10,24,17,31,3.20
2021,10,24,17,32,4.80
2021,10,24,17,33,6.40
2021,10,24,17,34,12.90
2021,10,24,17,35,11.30
2021,10,24,17,36,9.60
2021,10,24,17,37,12.90
2021,10,24,17,38,11.30
2021,10,24,17,39,9.60
2021,10,24,17,40,9.60
2021,10,24,17,41,9.60
2021,10,24,17,42,4.80
2021,10,24,17,43,14.50
2021,10,24,17,44,9.60
2021,10,24,17,45,6.40
2021,10,24,17,46,6.40
2021,10,24,17,47,11.30
2021,10,24,17,48,4.80
2021,10,24,17,49,9.60
2021,10,24,17,50,12.90
2021,10,24,17,51,3.20
2021,10,24,17,52,8.10
2021,10,24,17,53,4.80
2021,10,24,17,54,6.40
2021,10,24,17,55,11.30
2021,10,24,17,56,11.30
2021,10,24,17,57,14.50
2021,10,24,17,58,4.80
2021,10,24,17,59,9.60
2021,10,24,18,00,6.40
2021,10,24,18,01,14.50
2021,10,24,18,02,11.30
2021,10,24,18,03,11.30
2021,10,24,18,04,22.50
2021,10,24,18,05,12.90
2021,10,24,18,06,9.60
2021,10,24,18,07,12.90
2021,10,24,18,08,6.40
2021,10,24,18,09,9.60
2021,10,24,18,10,8.10
2021,10,24,18,11,6.40
2021,10,24,18,12,8.10
2021,10,24,18,13,16.10
2021,10,24,18,14,14.50
2021,10,24,18,15,6.40
2021,10,24,18,16,9.60
2021,10,24,18,17,17.70
2021,10,24,18,18,11.30
2021,10,24,18,19,14.50
2021,10,24,18,20,12.90
2021,10,24,18,21,8.10
2021,10,24,18,22,11.30
2021,10,24,18,23,17.70
2021,10,24,18,24,14.50
2021,10,24,18,25,9.60
2021,10,24,18,26,14.50
2021,10,24,18,27,12.90
2021,10,24,18,28,11.30
2021,10,24,18,29,17.70
2021,10,24,18,30,16.10
2021,10,24,18,31,16.10
2021,10,24,18,32,8.10
2021,10,24,18,33,11.30
2021,10,24,18,34,14.50
2021,10,24,18,35,12.90
2021,10,24,18,36,9.60
2021,10,24,18,37,16.10
2021,10,24,18,38,17.70
2021,10,24,18,39,17.70
2021,10,24,18,40,17.70
2021,10,24,18,41,17.70
2021,10,24,18,42,12.90
2021,10,24,18,43,14.50
2021,10,24,18,44,8.10
2021,10,24,18,45,6.40
2021,10,24,18,46,11.30
2021,10,24,18,47,16.10
2021,10,24,18,48,12.90
2021,10,24,18,49,16.10
2021,10,24,18,50,11.30
2021,10,24,18,51,11.30
2021,10,24,18,52,12.90
2021,10,24,18,53,14.50
2021,10,24,18,54,16.10
2021,10,24,18,55,17.70
2021,10,24,18,56,14.50
2021,10,24,18,57,8.10
2021,10,24,18,58,9.60
2021,10,24,18,59,4.80
2021,10,24,19,00,9.60
2021,10,24,19,01,8.10
2021,10,24,19,02,9.60
2021,10,24,19,03,6.40
2021,10,24,19,04,8.10
2021,10,24,19,05,12.90
2021,10,24,19,06,12.90
2021,10,24,19,07,8.10
2021,10,24,19,08,12.90
2021,10,24,19,09,9.60
2021,10,24,19,10,6.40
2021,10,24,19,11,8.10
2021,10,24,19,12,14.50
2021,10,24,19,13,8.10
2021,10,24,19,14,11.30
2021,10,24,19,15,11.30
2021,10,24,19,16,12.90
2021,10,24,19,17,11.30
2021,10,24,19,18,16.10
2021,10,24,19,19,14.50
2021,10,24,19,20,14.50
2021,10,24,19,21,16.10
2021,10,24,19,22,12.90
2021,10,24,19,23,16.10
2021,10,24,19,24,12.90
2021,10,24,19,25,11.30
2021,10,24,19,26,17.70
2021,10,24,19,27,12.90
2021,10,24,19,28,12.90
2021,10,24,19,29,16.10
2021,10,24,19,30,19.30
2021,10,24,19,31,11.30
2021,10,24,19,32,6.40
2021,10,24,19,33,9.60
2021,10,24,19,34,11.30
2021,10,24,19,35,12.90
2021,10,24,19,36,14.50
2021,10,24,19,37,14.50
2021,10,24,19,38,11.30
2021,10,24,19,39,17.70
2021,10,24,19,40,14.50
2021,10,24,19,41,9.60
2021,10,24,19,42,19.30
2021,10,24,19,43,14.50
2021,10,24,19,44,17.70
2021,10,24,19,45,17.70
2021,10,24,19,46,19.30
2021,10,24,19,47,12.90
2021,10,24,19,48,17.70
2021,10,24,19,49,12.90
2021,10,24,19,50,11.30